Regional Weather Roundup
Issued by NWS Wakefield, VA

Home | Current Version | Previous Version | Text Only | Print | Product List | Glossary On
Versions: 1 2 3 4 5 6 7 8 9 10 11 12 13 14 15 16 17 18 19 20 21 22 23 24 25 26 27 28 29 30 31 32 33 34 35 36 37 38 39 40 41 42 43 44 45 46 47 48 49 50
000
ASUS41 KAKQ 281110
RWRAKQ

REGIONAL WEATHER ROUNDUP
NATIONAL WEATHER SERVICE WAKEFIELD VA
700 AM EDT THU AUG 28 2014

Note: "fair" indicates few or no clouds below 12,000 feet with no
significant weather and/or obstructions to visibility. * = Denotes
station may not report precipitation (e.g., rain,snow,etc.),
thunder or fog.

VAZ042-051-052>054-056-281200-
NORTHERN VIRGINIA

CITY           SKY/WX    TMP DP  RH WIND       PRES   REMARKS
WASH NATIONAL  MOCLDY    77  66  68 NW13      29.96R
DULLES         PTCLDY    71  64  78 N9        29.97R
FORT BELVOIR   CLEAR     74  66  75 VRB3      29.96R
QUANTICO       CLEAR     75  67  76 N9        29.96R
FREDERICKSBRG* PTCLDY    74  69  83 NW3       29.94R
STAFFORD*      PTCLDY    73  73 100 NW7       30.00R
WARRENTON      CLEAR     69  69 100 N3        29.96R FOG
CULPEPER*      CLEAR    N/A N/A N/A CALM      29.97R
MANASSAS*      CLEAR     73  70  88 N12       29.97R
LEESBURG*      CLEAR     72  68  88 N9        29.98S
WINCHESTER     PTCLDY    68  61  77 NW6       30.01R
$$

VAZ048-049-060>072-079>083-281200-
CENTRAL AND SOUTH CENTRAL VIRGINIA...AND NORTH CENTRAL NORTH CAROLINA

CITY           SKY/WX    TMP DP  RH WIND       PRES   REMARKS
RICHMOND       MOCLDY    75  67  76 N10       29.94R
CHESTERFIELD*  MOSUNNY   68  55  64 NW5       29.97R
HANOVER        PTCLDY    72  67  84 MISG      29.97R
TAPPAHANNOCK*  PTCLDY    71  65  81 W5        29.94R
CHARLOTTSVILLE PTCLDY    72  67  84 CALM      29.98R
ORANGE*        PTCLDY    66  64  94 CALM      29.98S FOG
LOUISA*        PTCLDY    72  66  83 N5        29.96R
FARMVILLE*     MOCLDY    64  64 100 CALM      29.96R
SOUTH HILL*    MOCLDY    70  68  94 CALM      30.01R
ROANOKE RAPIDS PTSUNNY   64  63  94 SW5       29.96R
RALEIGH        MOCLDY    66  61  84 CALM      29.99R
$$

VAZ088>098-281200-
SOUTHEAST VIRGINIA

CITY           SKY/WX    TMP DP  RH WIND       PRES   REMARKS
NORFOLK        CLEAR     74  64  71 W5        29.91R
VIRGINIA BEACH MOCLDY    70  64  81 SW6       29.90R
NORFOLK NAVAL  MOCLDY    75  66  73 W8        29.92R
WEST POINT*    MOCLDY    73  67  83 CALM      29.94R
NEWPORT NEWS   PTCLDY    78  67  68 NW8       29.92R
LANGLEY AFB    PTCLDY    72  69  91 W6        29.91R
FORT EUSTIS    PTCLDY    75  72  90 NW8       29.91R
WILLIAMSBURG*  PTCLDY    73  68  83 NW7       29.94R
FRANKLIN*      PTCLDY    66  64  94 CALM      29.94R
WAKEFIELD      PTCLDY    70  63  78 CALM      29.94R
$$

VAZ020-022-025-037-045-281200-
WESTERN AND SOUTHWEST VIRGINIA

CITY           SKY/WX    TMP DP  RH WIND       PRES   REMARKS
STAUNTON*      PTCLDY    65  62  92 CALM      30.04R FOG
HOT SPRINGS VA MOCLDY   N/A N/A N/A W7        30.16R HAZE
LYNCHBURG      MOCLDY    65  65 100 CALM      30.01R
DANVILLE       CLEAR     67  64  90 SW5       29.99R
MARTINSVILLE   PTCLDY    63  63 100 CALM      30.05R
ROANOKE        MOCLDY    71  65  81 W7        30.05R
BLACKSBURG     PTCLDY    66  66 100 CALM      30.12R
DUBLIN*        PTCLDY    67  65  95 CALM      30.11R
MARION*        PTCLDY   N/A N/A N/A W6        30.16R
HILLSVILLE*    CLEAR     63  60  93 W5        30.13R
RICHLANDS*     MOSUNNY   66  64  93 CALM      30.13S
WISE*          CLEAR     64  63  94 S3        30.15R
ABINGDON*      MOCLDY    64  63  96 E5        30.12R
$$

MDZ021>025-VAZ099-100-281200-
SOUTHERN MARYLAND AND THE DELMARVA PENINSULA

CITY           SKY/WX    TMP DP  RH WIND       PRES   REMARKS
PATUXENT RIVER CLOUDY    75  69  81 NW10      29.92R
BAY BRIDGE APT   N/A     73  66  78 N14       29.93R
LEONARDTOWN    PTCLDY    73  66  78 CALM      29.94R
DOVER          PTCLDY    72  70  92 NW10      29.89R
GEORGETOWN     CLEAR     72  67  84 VRB6      29.90R
EASTON         PTCLDY    73  72  94 N5        29.96R
CAMBRIDGE      CLEAR     77  70  78 N7        29.91R
SALISBURY      CLEAR     73  68  84 NW5       29.89R
OCEAN CITY     CLEAR     72  68  87 N7        29.88R
WALLOPS ISLAND CLEAR     74  70  87 NW7       29.88R
ACCOMACK*      NOT AVBL
$$

NCZ012>017-030>032-281200-
EASTERN NORTH CAROLINA

CITY           SKY/WX    TMP DP  RH WIND       PRES   REMARKS
ELIZABETH CITY MOCLDY    69  64  84 W8        29.93R HAZE
AHOSKIE*       PTCLDY    65  62  90 CALM      29.96R
EDENTON*       MOCLDY    71  66  83 W6        29.95R
CURRITUCK*     MOCLDY    68  63  83 W5        29.94R
KILL DEVIL HLS CLEAR     74  68  79 W5        29.93R
MANTEO         CLEAR     71  67  88 W8        29.94R
CAPE HATTERAS  CLEAR     74  68  81 W8        29.95R
GOLDSBORO      PTCLDY    66  65  97 W2        29.96S
WASHINGTON     PTCLDY    66  63  88 SW3       29.98R
GREENVILLE     PTCLDY    68  63  83 CALM      29.99R
NEW BERN       CLEAR     66  60  81 SW5       29.99R
WILMINGTON     CLEAR     64  62  93 CALM      30.00R
$$

VAZ048-281200-
ELSEWHERE

CITY           SKY/WX    TMP DP  RH WIND       PRES   REMARKS
HARRISBURG PA  PTCLDY    68  57  68 NW8       29.98R
BALTIMORE      PTCLDY    71  66  84 CALM      29.94R
ANNAPOLIS      NOT AVBL
ANDREWS AFB    PTCLDY    74  69  85 NW8       29.95R
WILMINGTON DE  CLEAR     70  59  68 N8        29.93R
PHILADELPHIA   PTCLDY    72  57  59 N14       29.92R
WILDWOOD NJ*   CLEAR     73  63  68 N7        29.89R
ATLANTIC CITY  MOCLDY    71  59  65 N13       29.88R
HENDERSON NC   PTCLDY    67  62  84 CALM      29.99R
GREENSBORO     PTCLDY    69  63  81 CALM      30.01R
ROCKY MOUNT    PTCLDY    65  62  90 CALM      29.97R
FAYETTEVILLE   CLEAR     68  60  75 W7        29.99R
CHARLOTTE      PTCLDY    64  60  87 CALM      30.04R
$$

VAZ100-281200-
MARINE

STATION/POSITION TIME  TEMP    WIND        PRES    WAVE   SWELL
                       AIR SEA DIR/SP/G            HT/PER HT/PER
                 (UTC) (F)     (DEG/KT/KT) (MB)    (FT/S) (FT/S)
44066 TX TWR #4  1100   73 73  330/ 10/ 12 1009.5R   7/14   7/14
CAPE MAY NJ      1100   74 80  360/  5/ 13 1011.2R
LEWES DE         1100   76 77   10/ 14/ 18 1011.6R
15NM E FENWICK I 1100   76 74              1010.8R   4/ 9
OCEAN-CITY-INLET 1100   74 76  350/  8/  9 1011.2R
WACHAPREAGUE VA  1100   72 79  280/  2/  3 1011.9R
THOMAS POINT MD  1100   75 78  360/ 16/ 17 1014.2R
GOOSES REEF MD   1100   78      20/ 16/ 17 1013.4R
COVE POINT MD    1100   77      20/ 16/ 18 1012.8R
SOLOMONS ISLAND  1100      80                N/A
BISHOPS HEAD MD  1100   76 78  350/  7/ 12 1012.0R
PINEY POINT MD   1100          350/ 12/ 14   N/A
POTOMAC MD       1100   76     360/ 10/ 12 1012.0R
CAMBRIDGE MD     1100   76 79  350/ 10/ 11 1012.5R
LEWISETTA VA     1100   77 79  340/  9/ 16 1012.6R
RAPPAHANNOCK LGT 1100          300/ 15/ 16 1012.7R
STINGRAY PT      1100   77     320/ 14/ 16   N/A
YORK RVR RNG VA  1100   76     320/ 15/ 17 1012.1R
YORKTOWN VA      1100   76 79  290/ 12/ 13 1012.4R
JAMESTOWN VA     1100   74     330/ 10/ 12   N/A
DOMINION TERM VA 1100   73     290/  9/ 11 1012.8R
KIPTOPEKE VA     1100      80  310/ 11/ 13   N/A
CHES BAY BRIDGE  1100   76 78  240/ 11/ 13 1012.0R
CAPE HENRY VA    1100   73     250/  8/ 10 1011.3R
CHESAPEAKE LGHT  1000   75     270/ 11/ 12 1012.7R
WILLOUBY STN VA  1100   75     270/ 10/ 11 1011.5R
S CRANEY ISL VA  1100          240/  7/ 10 1012.5R
CAPE HENRY BUOY  1100      76                N/A     3/11   2/11
1ST LANDING BUOY 1100   77     270/ 12/ 16 1012.2S
CAPE CHARLES BUO 1100      76                N/A     4/12   3/12
OFFSHORE WE BUOY 1100      75                N/A     4/11   5/11
64NM E OF VA BCH 1100   75 74  270/ 12/ 14 1011.8R   6/12   5/12
DUCK PIER NC     1100   74 76  270/  8/ 11 1012.6R
44056 DUCK FRF   1100                        N/A     4/11   2/11
OREGON INLET NC  1100   74 78  270/  8/ 10 1013.4R
HATTERAS NC      1100   77 79  280/ 14/ 15 1014.4R
DIAMOND SHLS NC  1100   78     280/ 16/ 17 1013.8R   5/ 8   5/ 8
CAPE LOOKOUT NC  1000   77     280/  9/ 10 1014.3R
$$


USA.gov is the U.S. government's official web portal to all federal, state and local government web resources and services.